Theta_e
314 313 312 312 312 310 310 310 311 311 312 312 312 312 313 313 313 310 307 314 310 303 304 305 306 302 303 303 299 303 303 306 309 306 304 303 303 305 305 308 304 303 302 299 303 299 297 318 319 315 318 322 325 324
315 314 312 312 312 310 310 310 311 311 311 311 312 312 312 312 313 312 305 310 312 306 304 309 308 309 307 306 303 302 301 301 306 304 305 305 301 306 306 303 312 304 309 305 307 307 316 319 314 320 324 321 323 321
315 314 313 312 312 311 310 311 311 311 311 311 312 312 312 312 312 311 306 307 307 305 304 306 306 310 313 311 311 299 301 304 303 305 302 306 304 309 304 307 309 313 316 308 310 312 316 319 320 320 319 320 324 327
315 314 313 312 312 311 310 311 311 311 311 311 312 311 312 312 312 311 305 307 306 305 299 302 311 307 311 309 310 310 306 306 304 302 299 300 303 310 306 306 307 314 315 312 310 313 315 320 319 318 319 322 326 328
314 314 313 313 312 312 311 311 311 311 310 311 311 311 311 311 312 311 308 308 310 305 298 300 306 308 308 308 307 308 306 304 303 300 299 298 303 302 302 303 304 314 312 309 308 313 313 316 322 321 321 320 322 324
314 313 313 313 312 311 311 311 311 310 310 311 311 311 311 311 311 307 307 312 311 312 302 294 303 302 305 307 306 307 306 304 304 303 301 302 304 300 296 297 308 310 317 319 316 321 321 320 324 325 322 322 322 322
313 313 312 312 312 310 310 310 310 310 310 310 310 311 311 311 308 301 301 307 308 307 299 295 297 305 309 308 307 305 307 306 304 302 301 301 302 303 298 294 303 310 312 319 324 324 320 325 318 325 328 327 326 328
313 312 312 311 310 309 310 311 310 310 310 310 311 311 311 311 308 303 309 310 310 304 303 294 296 299 306 301 301 310 307 306 305 303 303 300 302 302 296 302 305 308 313 316 323 324 322 324 322 322 325 327 324 325
313 312 311 310 310 309 311 310 310 310 310 310 310 310 307 305 303 307 312 310 310 305 296 297 294 293 305 302 303 304 306 302 312 304 302 304 301 298 304 303 304 306 306 309 314 319 320 321 320 324 327 329 328 330
312 312 310 310 309 310 310 310 310 310 310 310 306 304 301 309 313 311 307 302 303 301 300 292 298 293 299 298 298 299 308 305 300 305 308 303 303 308 309 308 308 308 318 317 314 313 317 319 325 328 329 329 329 334
312 311 310 309 309 310 309 309 310 310 309 305 302 302 310 313 307 305 299 296 296 293 295 296 298 296 306 298 298 302 298 304 297 300 299 298 298 305 312 312 312 311 311 311 318 320 319 319 321 327 329 330 336 333
311 310 309 309 309 309 309 309 309 306 307 304 303 306 307 304 301 295 294 297 295 293 300 299 303 305 305 306 300 302 296 299 293 304 300 295 301 311 312 314 315 314 313 313 315 320 322 327 329 328 329 335 333 332
310 309 309 309 309 308 308 309 309 309 307 307 303 300 298 298 289 290 288 292 296 301 301 302 299 306 306 303 299 301 296 293 301 295 293 297 305 312 312 312 312 316 317 315 315 322 324 325 333 333 332 333 333 332
309 308 309 308 308 308 309 309 309 307 303 299 295 287 292 290 292 294 294 295 300 301 302 303 301 301 305 301 302 295 299 300 294 292 293 300 306 305 309 319 322 324 320 317 316 322 324 327 334 332 332 332 331 328
308 308 308 307 307 309 309 309 308 306 302 297 296 287 292 296 298 299 301 301 303 303 301 301 303 303 301 298 299 298 296 294 296 295 300 305 308 309 309 310 319 321 323 320 319 319 322 334 332 331 333 333 329 328
308 307 305 307 308 309 309 308 305 305 301 298 297 294 298 297 297 299 300 300 304 303 303 304 300 297 297 299 296 295 294 293 296 300 304 307 308 309 310 313 318 321 321 323 328 327 332 331 328 328 330 328 328 327
306 303 307 308 309 309 308 305 304 300 297 295 293 298 298 298 298 300 302 302 307 303 301 301 294 294 301 296 295 299 297 299 301 303 306 309 308 309 312 316 317 320 320 322 324 329 328 329 329 328 326 328 328 328
304 307 308 309 308 306 304 302 300 297 294 296 294 297 300 301 301 302 304 306 305 303 304 300 304 296 294 293 295 302 303 305 307 309 309 310 311 311 312 313 315 316 316 321 328 327 327 326 325 324 323 322 321 320
307 308 309 308 307 305 299 300 301 294 296 298 300 302 302 303 305 307 307 308 311 312 307 305 299 296 297 301 302 304 306 307 306 307 309 310 310 310 311 313 314 314 315 320 326 325 325 325 324 323 322 321 319 319
308 308 308 308 307 304 299 300 304 298 295 300 302 302 303 303 306 307 307 307 309 308 302 300 299 301 301 304 306 308 310 310 308 306 306 309 311 311 311 312 313 317 322 327 326 318 325 324 324 323 322 321 319 318
306 307 307 306 304 305 301 301 299 300 300 299 303 303 302 305 304 303 304 311 309 304 302 305 305 306 309 310 312 314 312 311 309 308 307 308 313 315 327 328 328 327 326 325 324 320 320 322 322 322 322 321 320 320
308 308 307 306 301 302 299 302 300 301 299 299 300 302 300 300 301 305 313 308 305 307 308 308 309 310 311 311 311 312 313 312 312 312 311 315 319 326 326 326 325 323 324 324 324 323 323 324 324 323 323 320 317 316
307 309 305 302 298 295 293 303 297 299 296 299 302 300 301 304 308 308 302 305 307 316 315 313 310 311 310 313 315 314 315 315 315 318 320 325 325 330 331 330 328 326 326 326 327 325 325 318 319 323 320 320 317 314
308 303 299 297 296 292 301 298 301 299 300 298 299 298 301 304 307 302 299 303 311 312 308 308 308 308 311 313 315 317 320 322 321 321 324 324 325 327 329 330 330 329 329 328 327 325 324 324 315 321 321 319 316 315
292 293 295 288 299 296 295 295 296 297 295 298 297 299 303 305 298 298 298 301 305 305 306 307 308 309 309 311 316 323 327 328 324 322 325 327 328 329 327 328 328 329 331 326 324 323 323 324 323 322 318 317 315 315
286 296 292 296 296 295 295 294 296 296 297 297 300 305 306 300 295 295 299 303 305 305 306 307 306 308 310 314 319 323 327 331 328 325 330 333 329 326 325 324 324 326 329 327 326 325 324 324 322 318 316 313 306 317
289 294 299 303 301 300 298 300 300 298 296 297 300 301 300 295 294 298 303 305 305 308 309 310 311 312 313 316 324 329 331 333 331 329 330 329 330 330 327 324 323 326 329 328 327 326 323 320 317 315 315 316 318 319
297 299 295 298 298 300 296 296 295 295 298 304 302 296 296 296 296 302 305 308 308 310 310 312 317 319 321 325 327 327 330 331 331 329 328 327 328 328 328 327 326 312 327 329 326 323 320 318 316 316 318 318 319 319
297 300 300 297 298 299 299 297 297 300 306 305 300 298 299 303 307 306 307 308 310 309 311 317 324 330 328 329 330 331 329 329 325 322 320 319 319 321 323 323 322 322 320 316 306 316 320 319 319 319 321 321 319 319
297 302 299 298 296 296 300 303 302 306 310 308 305 304 304 304 307 310 309 309 309 313 321 328 329 330 330 328 327 328 328 330 329 326 322 319 320 322 323 322 322 322 322 320 318 315 304 315 312 319 319 319 318 318
303 302 298 299 297 301 303 306 308 309 306 304 305 302 302 304 309 320 316 320 326 328 329 330 328 329 329 329 328 327 325 331 330 332 328 324 324 324 324 324 324 323 322 321 320 319 317 318 319 319 318 318 317 315
301 299 298 296 298 305 307 306 306 304 304 304 303 307 307 306 307 321 327 327 330 325 318 325 331 330 333 329 330 329 314 328 328 324 319 324 325 326 325 324 324 323 321 320 319 318 320 319 318 316 317 318 317 315
300 301 300 299 300 302 306 306 306 305 305 306 308 313 314 316 313 320 327 328 327 327 327 328 332 334 333 332 330 326 319 328 312 298 297 298 298 311 323 324 323 322 321 319 318 319 321 320 319 319 318 318 315 316
Wind_Speed
12 12 11 10 10 9 9 10 10 12 12 13 14 15 16 17 18 10 7 8 3 4 13 8 9 10 10 5 5 7 8 7 5 6 3 5 7 9 7 6 6 5 4 2 6 5 9 14 7 7 7 7 6 11
13 13 12 11 10 10 9 9 10 11 11 12 12 13 14 15 15 13 5 9 8 4 9 16 24 24 23 22 6 3 7 8 5 4 5 5 10 6 7 7 6 2 5 5 6 5 4 12 3 8 12 9 8 6
14 13 13 12 11 10 9 9 10 10 11 12 12 12 13 13 13 9 6 7 8 6 10 8 9 14 14 19 16 5 3 4 5 3 4 4 6 4 5 8 7 5 4 3 10 7 18 7 11 13 16 16 20 14
16 14 14 13 12 11 10 9 10 10 11 12 12 12 13 13 13 11 5 6 6 6 6 7 11 11 17 15 13 18 16 11 11 3 4 4 4 4 5 6 1 1 1 3 9 6 15 10 13 12 19 24 23 27
17 16 15 13 13 12 11 10 9 10 10 12 12 11 13 14 15 11 8 7 9 6 5 11 20 23 12 11 16 14 10 7 4 4 5 6 4 5 6 7 7 6 7 6 7 4 6 10 5 9 16 19 25 17
18 17 16 14 13 12 10 10 10 10 11 11 11 12 12 12 14 6 2 4 7 6 4 6 9 18 17 15 14 10 14 10 6 6 5 5 8 7 6 4 3 10 3 6 5 4 9 12 3 8 7 18 25 29
19 18 17 15 13 11 11 10 10 10 10 11 11 12 11 9 5 4 5 4 9 6 4 6 6 7 6 8 7 8 8 4 7 8 8 9 9 7 9 16 3 7 13 10 5 5 10 15 11 11 13 9 27 33
20 19 18 16 14 13 13 11 9 9 10 11 12 12 11 11 12 7 3 10 4 3 4 6 7 9 6 6 6 6 8 8 9 9 5 8 5 7 11 5 9 11 12 7 15 20 12 9 22 13 11 18 25 24
21 21 19 17 14 13 12 10 9 9 9 11 12 13 5 4 4 2 1 6 2 2 5 5 6 7 6 4 6 6 9 9 3 10 11 6 9 9 5 12 12 14 12 13 12 10 11 17 21 17 17 7 9 10
21 21 20 17 15 14 11 9 8 9 8 8 5 4 3 0 9 5 3 2 1 2 3 6 4 11 9 11 9 6 3 1 2 2 5 7 12 15 14 14 15 15 10 10 9 11 8 10 7 7 1 3 7 3
22 21 20 18 16 14 11 9 7 7 9 4 4 1 2 5 3 4 3 4 4 4 5 6 5 7 7 6 8 5 6 4 6 6 7 5 12 11 10 14 14 15 15 17 14 11 10 10 12 1 3 4 11 11
22 23 20 18 16 14 11 8 6 3 1 3 3 6 4 4 3 4 4 4 6 5 6 4 4 3 4 2 2 7 7 5 6 5 6 12 8 5 6 8 14 15 16 17 19 14 13 9 5 3 2 9 15 8
23 22 19 17 16 14 11 9 8 8 10 3 3 4 1 4 1 6 6 5 4 4 5 7 8 2 3 3 3 7 6 5 3 6 11 7 5 6 10 14 17 20 18 15 19 11 9 7 5 13 11 10 14 11
22 21 19 17 14 12 10 9 8 5 4 3 3 4 5 7 7 7 9 9 7 10 6 5 4 3 1 3 2 6 7 5 8 10 13 6 6 10 14 16 21 22 17 16 16 11 7 6 13 14 12 12 10 12
22 20 20 16 15 13 11 10 8 4 3 4 5 6 9 9 9 10 9 8 6 8 6 5 4 5 4 5 4 5 7 7 1 6 7 11 14 10 15 15 22 15 11 7 12 12 6 10 11 10 12 14 8 8
23 18 7 15 16 13 11 8 5 3 3 5 8 8 8 9 8 9 7 7 6 6 6 2 4 5 4 3 5 7 5 4 4 7 10 12 11 9 13 13 16 13 12 11 12 10 13 11 14 14 15 15 11 11
15 3 19 19 17 14 11 3 3 5 5 6 7 8 11 9 9 9 8 8 6 4 2 1 3 5 4 4 4 0 4 4 8 8 7 13 15 14 11 12 12 11 8 8 11 4 14 12 11 12 13 11 10 10
2 12 25 22 15 10 4 4 2 5 8 8 9 9 10 10 10 9 8 7 3 2 3 3 3 5 6 6 5 5 6 5 5 6 8 11 15 16 13 15 11 9 9 12 10 6 14 16 14 11 14 13 13 12
10 14 23 23 10 3 6 5 3 5 8 9 9 9 10 9 9 9 9 6 3 3 2 3 6 6 8 7 10 10 8 4 7 10 12 16 16 17 18 14 16 14 14 11 5 6 9 15 15 11 10 9 9 7
20 19 19 17 3 2 5 5 5 6 6 5 8 8 8 8 8 8 8 10 2 1 3 5 9 12 12 12 9 8 6 7 9 14 15 14 17 22 28 24 18 18 12 11 8 8 10 10 11 10 9 11 9 9
15 8 11 6 4 3 3 3 5 6 7 7 6 8 7 7 8 10 10 5 1 3 6 7 10 11 12 12 8 5 6 9 12 13 19 19 18 11 10 17 20 16 15 11 10 7 9 9 9 8 9 8 5 8
6 13 3 2 2 4 4 5 4 5 5 7 8 7 7 7 9 7 3 3 4 7 8 9 10 9 10 10 11 12 13 17 17 16 18 13 5 6 11 14 17 15 13 12 12 11 8 5 7 6 7 7 8 8
12 5 3 4 4 4 6 4 4 4 4 4 4 4 4 3 2 4 3 3 4 2 2 3 9 11 11 14 14 16 16 17 11 10 11 7 5 3 11 13 13 14 14 12 11 11 10 11 8 9 10 10 9 7
2 4 5 5 6 4 4 4 4 4 3 4 4 5 5 1 3 1 4 4 2 3 6 11 9 10 11 11 9 8 7 6 5 8 4 2 5 4 9 8 11 10 11 10 9 10 11 10 12 10 10 11 10 8
4 3 4 5 4 4 5 4 6 5 4 7 8 6 2 2 2 3 3 4 3 4 7 9 8 7 10 11 11 9 4 2 3 5 4 2 3 8 8 8 10 11 10 13 13 11 11 11 10 10 13 11 10 9
2 7 6 6 5 6 4 4 2 4 7 4 5 2 2 1 3 5 3 3 3 4 6 9 10 10 12 11 10 7 5 1 0 5 3 1 5 7 8 10 10 10 10 9 10 12 13 9 12 15 12 12 12 9
4 6 7 5 2 3 3 3 4 4 6 5 2 5 2 3 4 4 3 3 4 7 9 9 8 9 11 12 5 4 3 4 5 2 4 3 4 7 8 10 11 8 8 11 10 9 12 12 12 13 10 8 7 9
5 3 6 6 6 4 6 4 3 4 4 1 1 2 3 2 4 4 4 5 9 10 11 11 11 10 10 3 6 7 7 6 2 8 8 7 10 9 10 8 8 14 9 8 8 10 10 11 11 10 8 6 5 12
4 5 5 6 4 3 4 3 4 4 2 1 2 2 4 3 3 7 13 11 9 8 9 9 10 9 8 3 3 8 10 9 4 14 16 11 10 8 7 8 8 8 8 7 11 12 15 11 9 8 7 5 9 11
6 7 4 4 6 5 4 6 5 1 2 2 2 3 5 9 12 10 10 8 6 7 7 8 8 6 4 6 5 12 8 8 6 3 9 9 9 8 7 10 9 8 9 9 9 8 11 8 6 6 11 10 10 9
2 1 3 4 4 5 7 7 3 3 2 4 6 8 12 7 7 5 5 7 6 7 6 3 5 5 5 6 7 8 8 4 8 8 7 7 6 8 8 8 7 8 8 8 8 8 8 6 5 8 11 9 8 10
3 5 2 5 7 5 6 2 4 8 9 8 9 8 5 4 6 2 2 4 3 5 8 6 4 5 6 6 5 4 6 1 5 6 9 4 9 7 8 8 9 8 7 6 7 8 8 7 9 10 7 8 9 13
2 1 2 4 4 4 3 4 5 5 5 4 5 6 7 4 2 1 0 0 3 5 5 5 4 4 4 2 3 5 4 4 9 13 7 17 10 4 7 9 9 8 8 8 8 7 7 12 11 10 8 10 13 9
Wind_Direction
236 246 255 263 271 285 298 314 324 329 334 339 342 344 347 350 352 352 284 305 357 285 292 255 352 321 322 298 281 331 328 20 327 346 295 295 289 290 292 315 332 237 127 301 309 216 270 352 9 59 274 305 346 13
228 236 244 254 261 271 286 302 313 320 327 333 336 337 340 344 349 348 286 350 330 257 270 299 284 266 245 245 280 299 293 323 291 37 345 331 314 288 299 309 340 61 44 313 32 289 53 22 2 341 346 339 351 4
224 229 236 247 253 262 273 289 303 311 319 323 327 331 332 334 338 348 296 309 292 270 280 256 256 331 233 218 220 238 250 227 284 331 311 282 261 328 307 304 34 9 3 360 345 329 356 6 335 6 353 339 334 329
220 222 229 237 243 250 263 280 295 303 310 312 318 321 323 326 324 321 287 301 292 275 281 283 334 325 306 301 254 211 233 246 260 270 260 272 290 291 292 302 87 28 93 108 258 287 347 41 353 351 348 345 338 340
217 218 223 228 235 245 255 271 282 292 299 304 309 314 319 323 319 303 260 247 249 265 297 305 298 274 282 255 247 257 240 229 228 250 245 251 279 308 276 261 264 182 178 179 241 241 205 267 292 333 12 340 322 315
215 215 216 219 226 236 245 259 270 283 290 298 305 309 315 321 327 300 247 125 5 9 290 296 326 285 275 272 276 251 227 232 236 217 229 237 255 249 259 258 35 348 128 163 204 278 250 243 279 288 35 344 314 296
212 211 211 214 216 229 242 250 262 277 287 293 297 299 303 307 305 264 314 322 322 324 264 289 279 275 313 251 241 242 251 211 210 232 239 244 253 271 270 264 330 257 268 180 206 126 291 249 241 211 135 117 266 271
206 206 203 207 210 222 235 239 254 270 281 288 293 294 295 288 274 271 221 251 189 244 264 269 266 269 270 282 277 238 227 222 220 224 215 233 248 247 251 217 219 217 250 244 183 189 180 220 277 231 206 198 240 258
203 199 195 195 202 213 229 233 249 262 278 292 297 289 286 216 236 76 140 131 206 286 291 260 261 295 327 326 304 325 243 230 232 216 219 210 217 222 216 210 240 247 259 270 290 262 221 221 223 233 206 248 294 329
197 191 187 186 195 210 211 226 247 266 278 293 272 216 237 181 117 151 175 191 125 268 259 265 287 276 306 302 297 304 257 263 12 316 316 239 248 243 237 255 272 274 292 265 252 279 307 302 315 353 172 312 316 251
189 179 178 184 194 196 197 206 235 289 268 206 231 303 11 108 252 215 226 225 158 235 221 240 246 298 318 321 318 257 262 211 212 222 204 239 252 258 251 227 238 240 245 262 273 264 245 246 268 31 336 313 86 119
180 171 173 180 189 183 189 200 214 224 20 317 289 266 245 220 218 258 225 218 214 248 168 224 249 224 277 260 227 259 238 254 249 204 202 229 250 263 313 301 273 240 224 233 253 245 259 244 210 177 275 87 124 138
170 165 168 179 171 176 187 202 216 272 298 251 219 263 224 267 333 219 224 219 229 221 279 294 306 259 269 176 197 266 254 244 221 252 258 271 304 349 335 321 298 299 243 213 233 249 240 269 201 104 97 121 129 121
160 158 163 159 168 181 190 192 206 228 241 237 226 275 237 210 225 213 227 249 267 273 293 276 278 245 220 279 300 269 254 254 238 252 243 261 4 343 343 326 323 281 226 209 217 235 227 207 126 130 123 122 121 127
153 152 151 162 177 187 180 190 197 208 264 237 216 233 229 237 264 266 279 305 314 307 289 275 230 204 209 241 203 272 266 245 77 15 323 323 326 327 350 330 300 334 352 222 205 225 213 134 127 116 122 119 125 122
141 136 163 171 183 173 168 181 171 236 232 240 239 245 259 271 278 273 252 292 273 248 260 24 303 282 253 239 218 224 273 3 357 309 296 299 304 286 274 300 299 315 337 347 334 190 135 113 120 117 112 116 126 120
137 179 170 171 166 162 182 194 187 219 236 230 238 238 252 268 272 278 293 288 280 301 32 100 272 256 284 248 250 58 218 233 276 298 295 293 296 296 289 286 297 303 316 338 323 90 107 100 96 107 116 127 128 111
198 154 155 152 148 143 169 212 223 237 241 243 254 257 257 259 263 264 271 273 270 251 254 246 254 240 250 253 236 222 229 254 253 269 297 290 289 290 285 273 264 267 303 306 281 148 126 112 106 103 98 99 96 97
142 143 146 156 166 174 163 185 246 259 242 249 248 252 261 271 273 273 283 277 229 171 186 196 248 235 236 264 283 303 305 294 302 312 296 293 290 285 278 267 264 282 279 253 160 134 133 125 123 120 120 120 116 120
124 141 156 174 217 191 198 188 209 256 270 274 273 270 267 264 288 287 275 269 224 104 200 236 246 258 265 276 285 282 295 306 311 297 290 270 254 252 256 243 245 243 202 158 160 160 131 123 115 128 149 124 138 139
123 128 130 170 206 254 286 257 208 249 265 277 299 303 292 281 272 267 270 301 289 231 252 245 261 267 272 276 279 285 301 298 283 278 279 295 296 303 89 117 129 134 133 134 132 135 121 121 134 135 119 122 134 147
110 164 121 151 232 197 261 254 254 302 275 273 286 266 261 257 266 280 325 243 242 242 245 257 271 290 299 300 300 289 279 269 269 275 276 260 289 115 104 110 112 119 130 133 138 123 116 129 131 133 147 149 125 116
154 167 129 173 218 195 254 231 233 237 258 276 290 279 252 251 13 359 281 304 267 296 309 313 317 307 291 286 272 272 275 277 289 290 310 358 351 27 116 114 124 133 133 138 128 134 151 177 180 138 122 119 119 119
158 179 195 187 200 245 221 218 213 231 256 250 256 271 286 314 34 291 255 261 315 349 344 326 318 310 299 292 289 274 253 245 252 287 309 352 348 58 93 101 110 110 114 123 129 129 139 123 123 132 135 131 140 151
100 249 154 244 218 241 231 229 217 214 251 264 272 262 258 96 287 253 266 286 305 313 309 309 309 311 295 301 302 315 324 51 177 245 264 216 256 111 107 115 107 124 144 126 137 135 134 142 145 146 131 137 146 165
193 205 191 212 198 220 217 246 277 221 269 285 251 270 61 52 264 264 254 261 261 295 310 322 322 313 308 297 309 313 302 125 166 263 237 231 109 116 129 135 133 123 124 137 145 139 147 144 131 132 133 151 172 170
231 224 203 231 276 312 277 264 279 284 293 235 338 5 342 262 260 259 275 260 265 306 315 309 294 281 273 275 292 328 221 235 232 250 160 171 114 94 101 109 114 126 125 120 131 144 128 125 126 128 147 164 172 153
245 254 237 205 216 232 262 267 264 255 261 56 124 258 267 266 254 250 242 299 312 306 307 302 284 265 263 208 183 238 261 253 180 81 38 53 81 86 90 91 92 99 118 132 116 111 116 117 126 144 161 164 140 121
230 231 257 253 254 226 222 230 229 248 61 359 295 312 270 253 238 290 296 301 303 310 300 296 308 321 319 2 77 47 41 23 68 112 99 96 97 94 100 102 96 95 88 80 90 114 119 131 145 157 164 145 125 129
240 226 233 266 225 235 225 227 248 353 117 149 190 264 263 271 273 269 268 278 275 274 279 296 297 307 359 358 22 70 26 17 5 28 95 106 117 124 113 105 107 101 91 98 107 109 105 111 117 101 95 97 110 125
320 288 227 247 266 262 266 272 323 344 273 230 227 248 266 297 298 274 219 244 261 277 272 325 351 53 57 29 31 79 76 7 309 4 358 117 123 107 110 113 113 107 110 112 117 116 124 127 132 127 129 124 130 126
209 231 244 260 264 271 312 261 226 245 255 233 243 230 230 223 246 263 273 306 304 345 350 351 40 36 44 86 106 131 145 153 336 326 347 111 107 119 122 117 110 111 117 126 126 144 159 141 110 109 116 112 99 120
264 263 252 269 245 233 214 191 235 254 210 227 210 192 205 220 218 192 4 10 302 327 323 341 53 50 52 48 108 92 57 346 8 2 24 67 65 98 137 122 125 134 149 152 159 178 155 127 126 126 129 130 148 150